Погода в Гейте

Танзания     2°52′56″S   32°12′56″E
темп.,
°C
ветер,
м/с
пор.,
м/с
влажн.,
%
обл.,
%
осадки,
мм/ч
давл.,
гПа
погр.,
м
26 февраля, пт
пт2600:00+18юз12860 0.0 101223
03:00+17ююз12890 0.0 101123
06:00+17ю229263 0.0 101134
09:00+21ю248232 0.3 1014273
12:00+25юв23631 2.1 10121210
15:00+26в12634 3.9 10081111
18:00+24сз118154 5.4 1006161
21:00+19зюз118131 5.5 101023
27 февраля, сб
сб2700:00+18юз22860 0.0 101026
03:00+17ююз11880 0.0 100923
06:00+17ююз12880 0.0 101123
09:00+20ююз12847 0.0 1014287
12:00+27зюз116530 0.7 1011736
15:00+28вюв125657 2.3 10081542
18:00+26ююв006794 0.3 100753
21:00+19ююз228965 0.6 101123
28 февраля, вс
вс2800:00+18ююз258929 0.0 1011113
03:00+17ююз389564 0.0 1010219
06:00+16ююз259769 0.0 1011155
09:00+19ююв138678 0.0 1014223
12:00+26з017099 3.8 1012744
15:00+25всв016999 6.0 1008663
18:00+23в2381100 2.4 1008159
21:00+19в118173 2.5 101023
1 марта, пн
пн100:00+18зюз118057 0.0 101023
03:00+17ююз118376 0.0 100923
06:00+16юз2290100 0.0 101134
09:00+20вюв128395 0.0 1014186
12:00+25всв1166100 0.4 1012746
15:00+26ююв117098 4.8 1008418
18:00+25ю117349 1.3 1007230
21:00+20юз127925 1.3 101023
2 марта, вт
вт200:00+19юз238460 0.0 101162
03:00+18ююв268480 0.0 1010158
06:00+17ююв399596 0.0 1012280
09:00+20ююв378396 0.1 1014386
12:00+24вюв237494 5.4 1012673
15:00+25ююв346996 5.5 1009737
18:00+23ююв248067 0.9 1008279
21:00+18ююз229139 0.9 101132